Weather History for Statesboro, GA

Change the Weather History Date:

Monday, March 18, 2013

  Actual Average (KSAV) Record (KSAV)
Temperature  
Mean Temperature 64 °F 60 °F  
Max Temperature 73 °F 71 °F 90 °F (1963)
Min Temperature 55 °F 48 °F 32 °F (1971)
Degree Days  
Heating Degree Days 1 6  
Month to date heating degree days 143  
Since 1 July heating degree days 1660  
Cooling Degree Days 0 1  
Month to date cooling degree days 18  
Year to date cooling degree days 28  
Growing Degree Days 14 (Base 50)    
Moisture  
Dew Point 59 °F    
Average Humidity 87    
Maximum Humidity 100    
Minimum Humidity 64    
Precipitation  
Precipitation 0.00 in 0.12 in 1.69 in (1969)
Month to date precipitation 2.17  
Year to date precipitation 8.65  
Sea Level Pressure  
Sea Level Pressure 29.98 in    
Wind  
Wind Speed 4 mph (South)    
Max Wind Speed 15 mph    
Max Gust Speed 36 mph    
Visibility 8 miles    
Events Rain , Thunderstorm    
T = Trace of Precipitation, MM = Missing Value Source: NWS Daily Summary

Daily Weather History Graph

Daily Weather History Graph

Search for Another Location

Airport:

Trip Planner

Search our weather history database for the weather conditions in past years. The results will help you decide how hot, cold, wet, or windy it might be!

Date:

Astronomy

Mar. 18, 2013 Rise Set
Actual Time 7:32 AM EDT 7:37 PM EDT
Civil Twilight 7:08 AM EDT 8:01 PM EDT
Nautical Twilight 6:39 AM EDT 8:30 PM EDT
Astronomical Twilight 6:11 AM EDT 8:59 PM EDT
Moon 11:50 AM EDT (3/18) 1:17 AM EDT (3/18)
Length of Visible Light 12h 53m
Length of Day
12h 04m
Waxing Crescent, 40% of the Moon is Illuminated
Mar 18
Waxing Crescent
Mar 19
First Quarter
Mar 27
Full
Apr 3
Last Quarter
Apr 10
New

Hourly Weather History & Observations

Time (EDT) Temp. Dew Point Humidity Pressure Visibility Wind Dir Wind Speed Gust Speed Precip Events Conditions
12:15 AM 64.4 °F 55.4 °F 73% 30.04 in 10.0 mi Calm Calm - N/A Rain Light Rain
12:35 AM 62.6 °F 55.4 °F 77% 30.04 in 10.0 mi Calm Calm - N/A Rain Light Rain
12:55 AM 62.6 °F 57.2 °F 82% 30.04 in 10.0 mi Calm Calm - N/A Rain Light Rain
1:15 AM 60.8 °F 57.2 °F 88% 30.04 in 10.0 mi Calm Calm - N/A Rain Rain
1:35 AM 60.8 °F 60.8 °F 100% 30.03 in 10.0 mi Calm Calm - N/A Rain Rain
1:55 AM 60.8 °F 60.8 °F 100% 30.04 in 10.0 mi SSW 5.8 mph - N/A Rain Light Rain
2:15 AM 60.8 °F 60.8 °F 100% 30.03 in 10.0 mi SSW 8.1 mph - N/A Rain Light Rain
2:35 AM 59.0 °F 59.0 °F 100% 30.02 in 10.0 mi SSW 10.4 mph - N/A Rain Light Rain
2:55 AM 59.0 °F 59.0 °F 100% 30.02 in 10.0 mi SSW 10.4 mph - N/A Rain Rain
3:15 AM 59.0 °F 59.0 °F 100% 30.01 in 10.0 mi SSW 10.4 mph - N/A Rain Rain
3:35 AM 59.0 °F 59.0 °F 100% 30.01 in 10.0 mi South 9.2 mph - N/A Rain Rain
3:55 AM 59.0 °F 59.0 °F 100% 30.02 in 10.0 mi SSW 5.8 mph - N/A Rain Rain
4:15 AM 59.0 °F 59.0 °F 100% 30.02 in 10.0 mi Calm Calm - N/A Rain Light Rain
4:35 AM 59.0 °F 59.0 °F 100% 30.02 in 7.0 mi North 3.5 mph - N/A Rain Light Rain
4:55 AM 59.0 °F 59.0 °F 100% 30.01 in 10.0 mi Calm Calm - N/A   Overcast
5:15 AM 59.0 °F 59.0 °F 100% 30.01 in 5.0 mi East 3.5 mph - N/A Rain Light Rain
5:35 AM 59.0 °F 59.0 °F 100% 30.03 in 7.0 mi Calm Calm - N/A   Overcast
5:55 AM 59.0 °F 59.0 °F 100% 30.03 in 7.0 mi Calm Calm - N/A   Overcast
6:15 AM 59.0 °F 59.0 °F 100% 30.04 in 7.0 mi Calm Calm - N/A   Overcast
6:35 AM 59.0 °F 59.0 °F 100% 30.04 in 7.0 mi Calm Calm - N/A   Overcast
6:55 AM 57.2 °F 57.2 °F 100% 30.04 in 4.0 mi Calm Calm - N/A   Overcast
7:15 AM 57.2 °F 57.2 °F 100% 30.04 in 5.0 mi SSE 3.5 mph - N/A   Mostly Cloudy
7:35 AM 55.4 °F 55.4 °F 100% 30.05 in 3.0 mi SSE 3.5 mph - N/A   Mostly Cloudy
7:55 AM 57.2 °F 57.2 °F 100% 30.05 in 7.0 mi SSE 4.6 mph - N/A   Overcast
8:15 AM 57.2 °F 57.2 °F 100% 30.05 in 5.0 mi SSE 3.5 mph - N/A Rain Rain
8:35 AM 59.0 °F 59.0 °F 100% 30.06 in 2.5 mi Calm Calm - N/A   Drizzle
8:55 AM 59.0 °F 59.0 °F 100% 30.06 in 2.5 mi South 4.6 mph - N/A   Drizzle
9:15 AM 59.0 °F 59.0 °F 100% 30.06 in 2.0 mi Calm Calm - N/A   Drizzle
9:35 AM 59.0 °F 59.0 °F 100% 30.06 in 2.0 mi Calm Calm - N/A   Drizzle
9:55 AM 59.0 °F 59.0 °F 100% 30.06 in 3.0 mi SE 3.5 mph - N/A   Overcast
10:15 AM 59.0 °F 59.0 °F 100% 30.06 in 5.0 mi SSE 3.5 mph - N/A   Overcast
10:35 AM 60.8 °F 60.8 °F 100% 30.06 in 7.0 mi Calm Calm - N/A   Overcast
10:55 AM 60.8 °F 60.8 °F 100% 30.06 in 10.0 mi Calm Calm - N/A   Overcast
11:15 AM 60.8 °F 60.8 °F 100% 30.05 in 10.0 mi SSE 4.6 mph - N/A   Overcast
11:35 AM 62.6 °F 62.6 °F 100% 30.05 in 10.0 mi South 5.8 mph - N/A   Overcast
11:55 AM 62.6 °F 62.6 °F 100% 30.04 in 10.0 mi South 8.1 mph - N/A   Overcast
12:15 PM 64.4 °F 62.6 °F 94% 30.03 in 10.0 mi South 5.8 mph - N/A   Overcast
12:35 PM 66.2 °F 59.0 °F 78% 30.01 in 10.0 mi South 5.8 mph - N/A   Overcast
12:55 PM 68.0 °F 59.0 °F 73% 30.01 in 10.0 mi SSE 5.8 mph - N/A   Mostly Cloudy
1:15 PM 69.8 °F 59.0 °F 68% 30.00 in 10.0 mi South 9.2 mph - N/A   Overcast
1:35 PM 69.8 °F 59.0 °F 68% 29.99 in 10.0 mi SSW 10.4 mph - N/A   Overcast
1:55 PM 69.8 °F 59.0 °F 68% 29.97 in 10.0 mi SW 9.2 mph - N/A   Overcast
2:15 PM 69.8 °F 59.0 °F 68% 29.97 in 10.0 mi SSW 10.4 mph - N/A   Overcast
2:35 PM 69.8 °F 59.0 °F 68% 29.95 in 10.0 mi SSE 9.2 mph - N/A   Overcast
2:55 PM 71.6 °F 59.0 °F 64% 29.95 in 10.0 mi SSW 10.4 mph - N/A   Overcast
3:15 PM 69.8 °F 59.0 °F 68% 29.94 in 10.0 mi SW 6.9 mph - N/A   Overcast
3:35 PM 69.8 °F 59.0 °F 68% 29.92 in 10.0 mi South 8.1 mph - N/A   Overcast
3:55 PM 71.6 °F 60.8 °F 69% 29.91 in 10.0 mi South 6.9 mph - N/A   Mostly Cloudy
4:15 PM 71.6 °F 59.0 °F 64% 29.91 in 10.0 mi South 8.1 mph - N/A   Mostly Cloudy
4:35 PM 71.6 °F 59.0 °F 64% 29.91 in 10.0 mi South 6.9 mph - N/A   Overcast
4:55 PM 73.4 °F 60.8 °F 65% 29.89 in 10.0 mi SSE 6.9 mph - N/A   Mostly Cloudy
5:15 PM 71.6 °F 60.8 °F 69% 29.88 in 10.0 mi South 9.2 mph - N/A   Overcast
5:35 PM 71.6 °F 60.8 °F 69% 29.88 in 10.0 mi SSE 5.8 mph - N/A   Overcast
5:55 PM 73.4 °F 60.8 °F 65% 29.87 in 10.0 mi SSE 9.2 mph - N/A   Mostly Cloudy
6:15 PM 71.6 °F 60.8 °F 69% 29.87 in 10.0 mi SE 3.5 mph - N/A   Mostly Cloudy
6:35 PM 71.6 °F 60.8 °F 69% 29.86 in 10.0 mi SSE 6.9 mph - N/A   Mostly Cloudy
6:55 PM 71.6 °F 60.8 °F 69% 29.85 in 10.0 mi SE 5.8 mph - N/A   Overcast
7:15 PM 69.8 °F 60.8 °F 73% 29.84 in 10.0 mi SSE 5.8 mph - N/A   Scattered Clouds
7:35 PM 69.8 °F 60.8 °F 73% 29.84 in 10.0 mi SE 3.5 mph - N/A   Mostly Cloudy
7:55 PM 69.8 °F 60.8 °F 73% 29.85 in 10.0 mi SE 4.6 mph - N/A   Overcast
8:15 PM 69.8 °F 60.8 °F 73% 29.84 in 10.0 mi SE 6.9 mph - N/A   Overcast
8:35 PM 68.0 °F 60.8 °F 78% 29.84 in 10.0 mi SSE 8.1 mph - N/A   Mostly Cloudy
8:55 PM 68.0 °F 60.8 °F 78% 29.84 in 10.0 mi SE 8.1 mph - N/A   Mostly Cloudy
9:15 PM 68.0 °F 60.8 °F 78% 29.83 in 10.0 mi SE 5.8 mph - N/A   Scattered Clouds
9:55 PM 57.2 °F 57.2 °F 100% 29.95 in 7.0 mi NNW 15.0 mph 35.7 mph N/A Rain , Thunderstorm Heavy Thunderstorms and Rain
10:15 PM 55.4 °F 55.4 °F 100% 29.97 in 10.0 mi NW 9.2 mph 16.1 mph N/A Rain , Thunderstorm Thunderstorms and Rain
10:35 PM 55.4 °F 55.4 °F 100% 29.96 in 7.0 mi NNW 5.8 mph - N/A Rain , Thunderstorm Heavy Thunderstorms and Rain
10:55 PM 57.2 °F 57.2 °F 100% 29.95 in 7.0 mi NNE 4.6 mph - N/A Rain Heavy Rain
11:15 PM 57.2 °F 57.2 °F 100% 29.97 in 5.0 mi Calm Calm - N/A Rain , Thunderstorm Thunderstorms and Rain
11:55 PM 57.2 °F 57.2 °F 100% 29.94 in 10.0 mi SSE 5.8 mph - N/A Rain Light Rain